Location: City of Moscow
(46.7306°N, 116.9989°W)
Time: 03:18:23
(UTC+00:00)

USA 234 - Pass Details

Date: 11 March 2026
Orbit: 1102 x 1106 km, 123.0° (Epoch: 4 January)

Event Time Altitude Azimuth Distance (km) Brightness Sun altitude
Exits shadow 04:57:32 82° 360° (N) 1,118 3.2 -32.0°
Drops below altitude 10° 05:03:56 10° 308° (NW) 2,970 6.4 -32.9°
Sets 05:06:25 0° 308° (NW) 3,931 7.3 -33.2°
